Tracking 22454 objects as of 4-Mar-2021
HD Live streaming from Space Station
objects crossing your sky now

DELTA 1 DEB

Track DELTA 1 DEB now!
10-day predictions


NORAD ID: 10305
Int'l Code: 1977-065DB
Perigee: 590.9 km
Apogee: 882.3 km
Inclination: 29.1 °
Period: 99.4 minutes
Semi major axis: 7107 km
RCS: 0.0383 m2 (small)
Launch date: July 14, 1977
Source: United States (US)
Launch site: AIR FORCE EASTERN TEST RANGE (AFETR)

Note: This is SATELLITE DEBRIS
aabbcc
Your satellite tracking list
Your tracking list is empty




NASA's NSSDC Master Catalog

Two Line Element Set (TLE):
1 10305U 77065DB  21063.55893209  .00003263  00000-0  62373-3 0  9995
2 10305  29.0526 247.9156 0204963 278.0669  79.6710 14.48837689162929
Source of the keplerian elements: AFSPC